Temp
-9 -8 -8 -8 -7 -8 -8 -8 -8 -8 -8 -8 -8 -8 -8 -8 -9 -8 -9 -9 -9 -9 -9 -9 -9 -9 -9 -9 -9 -9 -9 -9 -9 -9 -8 -8 -8 -8 -8 -8 -8 -8 -8
-8 -8 -8 -8 -8 -8 -8 -8 -8 -8 -8 -8 -8 -8 -8 -9 -9 -9 -9 -9 -9 -9 -9 -9 -9 -9 -9 -9 -9 -9 -9 -9 -9 -9 -9 -9 -8 -8 -8 -8 -8 -8 -8
-9 -9 -8 -8 -8 -8 -8 -8 -8 -8 -8 -8 -8 -8 -8 -8 -9 -8 -9 -9 -9 -9 -9 -9 -9 -9 -9 -9 -9 -9 -9 -9 -9 -9 -9 -9 -8 -8 -8 -8 -8 -8 -8
-9 -8 -9 -8 -8 -8 -8 -8 -8 -8 -8 -8 -8 -8 -8 -8 -9 -9 -9 -9 -9 -9 -9 -9 -9 -9 -8 -9 -9 -9 -9 -9 -9 -9 -9 -9 -8 -8 -8 -8 -8 -8 -8
-9 -8 -9 -8 -8 -8 -8 -8 -8 -8 -8 -8 -8 -8 -8 -8 -8 -8 -9 -9 -9 -9 -9 -8 -8 -8 -8 -9 -9 -9 -9 -9 -9 -9 -9 -9 -8 -8 -8 -8 -8 -8 -8
-10 -9 -9 -9 -9 -8 -8 -8 -8 -8 -8 -8 -8 -8 -8 -8 -8 -9 -9 -9 -9 -9 -8 -8 -8 -8 -8 -9 -8 -9 -9 -9 -9 -9 -9 -9 -8 -8 -8 -8 -8 -8 -8
-10 -9 -9 -9 -9 -9 -8 -8 -8 -8 -8 -8 -8 -8 -8 -8 -8 -9 -9 -8 -9 -9 -9 -8 -8 -8 -8 -8 -9 -9 -9 -9 -9 -9 -9 -8 -8 -8 -8 -8 -8 -8 -8
-10 -9 -9 -9 -9 -9 -9 -8 -8 -8 -8 -8 -8 -8 -8 -8 -9 -8 -8 -8 -8 -9 -9 -9 -8 -8 -8 -8 -8 -9 -9 -9 -9 -9 -9 -8 -8 -8 -8 -8 -8 -8 -8
-10 -10 -9 -9 -9 -9 -9 -9 -8 -8 -8 -8 -8 -8 -8 -8 -8 -8 -8 -8 -9 -9 -9 -9 -8 -8 -8 -8 -8 -9 -9 -9 -9 -9 -8 -8 -8 -8 -8 -8 -8 -8 -8
-10 -10 -9 -9 -9 -9 -9 -9 -9 -8 -8 -8 -8 -8 -8 -8 -8 -8 -8 -8 -8 -9 -9 -9 -9 -9 -8 -8 -8 -9 -9 -9 -9 -9 -9 -8 -8 -9 -8 -8 -8 -8 -8
-10 -10 -10 -9 -9 -9 -9 -9 -9 -8 -8 -8 -8 -8 -8 -8 -8 -8 -8 -8 -9 -8 -8 -9 -8 -9 -9 -9 -9 -9 -9 -9 -9 -9 -8 -8 -9 -8 -8 -8 -8 -8 -8
-10 -10 -10 -10 -10 -9 -9 -9 -9 -9 -8 -8 -8 -8 -8 -8 -8 -8 -8 -8 -9 -8 -9 -9 -9 -9 -9 -9 -9 -9 -9 -9 -9 -9 -8 -9 -9 -8 -8 -8 -8 -9 -9
-10 -10 -10 -10 -10 -10 -9 -9 -9 -9 -9 -8 -8 -8 -8 -8 -8 -8 -8 -8 -8 -8 -8 -9 -9 -9 -9 -9 -9 -9 -9 -9 -9 -9 -9 -9 -8 -8 -8 -8 -9 -9 -9
-10 -10 -10 -10 -10 -10 -10 -10 -10 -9 -9 -9 -9 -8 -8 -9 -9 -8 -8 -9 -9 -9 -8 -9 -9 -9 -9 -9 -9 -9 -9 -9 -9 -9 -9 -8 -8 -9 -9 -9 -9 -9 -9
-10 -10 -10 -10 -10 -10 -10 -10 -10 -9 -9 -9 -9 -8 -9 -9 -9 -9 -9 -9 -9 -9 -9 -9 -9 -9 -9 -9 -9 -9 -9 -9 -9 -9 -9 -9 -9 -9 -9 -9 -9 -9 -10
-11 -10 -11 -10 -10 -10 -10 -10 -10 -10 -10 -9 -9 -9 -9 -9 -9 -9 -9 -9 -9 -10 -9 -9 -9 -9 -9 -9 -9 -9 -9 -9 -9 -9 -9 -9 -9 -9 -9 -9 -9 -10 -10
-11 -10 -11 -11 -10 -10 -10 -10 -11 -10 -10 -10 -9 -9 -9 -9 -9 -9 -9 -10 -10 -10 -10 -10 -9 -9 -9 -9 -9 -9 -9 -9 -9 -9 -9 -9 -9 -9 -9 -10 -10 -10 -10
-12 -11 -11 -12 -11 -11 -11 -11 -11 -11 -10 -10 -9 -9 -9 -9 -9 -9 -10 -10 -10 -10 -10 -9 -9 -9 -9 -9 -9 -9 -9 -9 -9 -9 -9 -9 -9 -10 -10 -10 -10 -10 -10
-13 -11 -11 -12 -12 -11 -11 -11 -11 -11 -10 -10 -10 -10 -9 -9 -9 -9 -9 -10 -10 -10 -10 -10 -9 -10 -9 -9 -9 -9 -9 -9 -9 -9 -9 -10 -10 -10 -10 -10 -10 -10 -10
-14 -12 -11 -12 -12 -12 -11 -11 -11 -11 -10 -11 -11 -10 -10 -9 -9 -9 -9 -9 -10 -10 -10 -10 -9 -9 -9 -9 -9 -9 -9 -9 -9 -9 -9 -10 -10 -10 -10 -10 -10 -10 -10
-17 -14 -12 -12 -13 -13 -12 -12 -12 -12 -11 -11 -11 -12 -11 -10 -9 -9 -9 -9 -10 -10 -10 -10 -9 -10 -10 -10 -10 -9 -9 -9 -9 -9 -10 -10 -10 -10 -10 -10 -10 -11 -10
-15 -14 -12 -12 -13 -13 -13 -13 -12 -12 -12 -11 -11 -11 -11 -10 -10 -10 -10 -9 -9 -10 -10 -10 -10 -10 -10 -10 -10 -10 -9 -9 -9 -10 -10 -10 -10 -10 -10 -11 -11 -11 -10
-16 -14 -12 -12 -13 -13 -13 -13 -12 -12 -11 -12 -12 -12 -12 -11 -11 -9 -10 -10 -9 -10 -10 -10 -10 -10 -10 -10 -10 -10 -10 -9 -9 -10 -10 -10 -10 -10 -10 -11 -11 -11 -10
-15 -13 -13 -12 -12 -13 -13 -13 -13 -12 -12 -12 -13 -12 -11 -12 -11 -10 -10 -10 -10 -10 -10 -9 -10 -9 -9 -10 -10 -10 -10 -9 -10 -10 -10 -10 -10 -10 -11 -11 -11 -11 -10
-15 -14 -14 -13 -12 -13 -13 -13 -12 -12 -11 -12 -12 -12 -12 -12 -11 -12 -12 -11 -10 -10 -10 -10 -10 -10 -10 -10 -10 -10 -10 -10 -9 -10 -10 -10 -10 -10 -10 -10 -10 -11 -10
-15 -14 -14 -13 -13 -13 -13 -13 -13 -12 -11 -12 -12 -12 -12 -12 -12 -11 -11 -11 -11 -10 -10 -10 -10 -10 -10 -10 -10 -10 -10 -10 -10 -10 -10 -10 -10 -10 -10 -11 -10 -10 -10
Height
5841 5839 5838 5838 5840 5840 5839 5838 5837 5836 5836 5836 5836 5837 5839 5839 5843 5847 5848 5850 5850 5851 5853 5854 5857 5860 5862 5865 5867 5869 5871 5874 5876 5878 5879 5879 5880 5880 5880 5881 5882 5883 5883
5838 5837 5835 5836 5838 5838 5837 5836 5836 5835 5835 5835 5834 5836 5836 5838 5840 5844 5846 5848 5849 5851 5852 5855 5857 5859 5862 5865 5867 5869 5872 5873 5876 5878 5879 5880 5880 5881 5881 5882 5882 5883 5883
5835 5834 5834 5834 5835 5834 5835 5834 5834 5833 5833 5833 5832 5834 5835 5836 5838 5842 5844 5847 5849 5850 5853 5854 5857 5860 5862 5865 5868 5870 5871 5874 5876 5877 5879 5880 5881 5882 5882 5883 5882 5883 5883
5833 5832 5832 5832 5831 5832 5832 5831 5832 5832 5831 5831 5831 5832 5834 5835 5836 5840 5843 5846 5848 5850 5852 5854 5857 5859 5862 5865 5867 5870 5871 5874 5875 5877 5879 5880 5881 5882 5883 5883 5883 5883 5883
5830 5831 5829 5829 5829 5829 5829 5829 5830 5829 5829 5829 5829 5829 5832 5833 5833 5838 5842 5845 5847 5849 5851 5853 5856 5859 5862 5865 5868 5871 5872 5874 5876 5878 5879 5880 5881 5882 5882 5883 5883 5883 5883
5826 5827 5826 5827 5826 5827 5827 5827 5828 5827 5827 5827 5828 5828 5829 5832 5833 5836 5840 5842 5845 5848 5850 5852 5855 5859 5861 5865 5868 5871 5872 5875 5876 5877 5879 5881 5882 5882 5882 5883 5883 5883 5884
5825 5823 5823 5823 5824 5824 5824 5825 5825 5824 5824 5825 5826 5825 5828 5830 5832 5835 5838 5841 5844 5845 5849 5851 5855 5858 5861 5864 5868 5870 5872 5874 5876 5878 5880 5880 5881 5882 5882 5883 5883 5884 5884
5822 5820 5820 5819 5820 5821 5821 5823 5823 5822 5822 5822 5823 5821 5826 5829 5831 5834 5836 5839 5842 5845 5848 5851 5854 5857 5861 5863 5866 5869 5871 5874 5876 5878 5879 5880 5881 5882 5882 5882 5883 5883 5883
5816 5816 5816 5816 5816 5818 5819 5820 5820 5820 5820 5820 5820 5819 5824 5827 5829 5832 5834 5838 5841 5844 5847 5849 5853 5857 5858 5862 5866 5868 5871 5873 5876 5877 5879 5880 5881 5881 5882 5882 5883 5883 5883
5812 5811 5812 5813 5814 5815 5815 5816 5817 5818 5818 5818 5818 5818 5821 5824 5827 5830 5833 5835 5839 5842 5846 5848 5852 5854 5857 5861 5864 5867 5869 5873 5875 5877 5878 5879 5881 5881 5881 5882 5883 5883 5883
5809 5806 5808 5809 5810 5812 5813 5813 5815 5816 5816 5816 5817 5818 5820 5823 5825 5828 5830 5834 5837 5840 5843 5848 5850 5852 5856 5859 5862 5866 5869 5872 5874 5877 5878 5879 5880 5881 5881 5882 5882 5882 5881
5803 5803 5804 5805 5807 5808 5809 5809 5812 5813 5813 5814 5814 5815 5818 5821 5824 5826 5829 5832 5835 5839 5842 5846 5849 5850 5855 5858 5862 5865 5868 5871 5874 5875 5877 5879 5880 5880 5881 5881 5881 5881 5880
5796 5799 5800 5801 5803 5804 5806 5807 5808 5810 5811 5812 5813 5814 5817 5820 5823 5825 5828 5832 5834 5837 5840 5844 5846 5849 5855 5858 5861 5865 5867 5870 5872 5874 5876 5878 5879 5880 5880 5880 5880 5880 5879
5791 5792 5795 5795 5798 5800 5802 5803 5804 5806 5809 5809 5811 5811 5813 5818 5822 5824 5828 5830 5833 5836 5838 5841 5844 5848 5853 5858 5862 5864 5866 5869 5871 5874 5875 5877 5878 5879 5879 5879 5879 5879 5878
5786 5787 5788 5790 5792 5795 5797 5798 5800 5803 5805 5807 5807 5809 5812 5816 5819 5823 5825 5828 5831 5834 5837 5839 5843 5847 5850 5856 5860 5862 5865 5868 5871 5873 5875 5876 5877 5878 5878 5878 5878 5877 5877
5776 5781 5781 5783 5786 5789 5792 5794 5796 5798 5801 5804 5804 5807 5810 5814 5816 5820 5823 5825 5828 5833 5836 5838 5841 5846 5849 5855 5858 5860 5864 5867 5869 5872 5873 5875 5876 5877 5877 5877 5877 5877 5876
5768 5771 5775 5777 5780 5783 5787 5789 5792 5794 5796 5800 5802 5804 5807 5810 5811 5817 5820 5824 5826 5830 5833 5837 5840 5843 5847 5852 5856 5858 5862 5866 5868 5871 5872 5873 5875 5876 5876 5876 5876 5876 5875
5755 5762 5766 5770 5773 5776 5781 5784 5786 5790 5792 5795 5797 5799 5802 5805 5808 5812 5816 5821 5825 5828 5832 5835 5839 5841 5846 5850 5853 5857 5860 5863 5867 5870 5871 5872 5873 5874 5874 5874 5874 5874 5873
5739 5753 5755 5763 5765 5769 5774 5777 5781 5784 5786 5788 5792 5793 5798 5800 5804 5807 5809 5814 5820 5826 5828 5832 5836 5839 5844 5847 5850 5854 5858 5861 5864 5867 5869 5871 5871 5872 5873 5873 5873 5872 5871
5727 5740 5744 5754 5756 5759 5765 5769 5774 5778 5780 5782 5786 5781 5791 5791 5798 5800 5804 5808 5814 5820 5824 5828 5833 5836 5840 5845 5847 5851 5855 5858 5862 5864 5867 5868 5869 5871 5871 5872 5871 5870 5869
5715 5723 5734 5742 5749 5749 5756 5763 5768 5773 5774 5776 5779 5781 5779 5785 5792 5798 5802 5805 5810 5816 5821 5825 5828 5832 5837 5838 5844 5848 5852 5856 5859 5861 5864 5865 5868 5868 5869 5870 5869 5868 5867
5701 5707 5724 5730 5738 5741 5746 5755 5760 5764 5766 5769 5770 5774 5774 5779 5785 5791 5796 5799 5805 5810 5815 5819 5823 5827 5831 5834 5839 5845 5849 5854 5857 5859 5861 5863 5863 5865 5866 5867 5866 5865 5865
5692 5699 5714 5721 5729 5733 5737 5744 5750 5753 5756 5762 5767 5771 5774 5773 5780 5783 5789 5794 5800 5805 5809 5813 5818 5820 5825 5830 5835 5841 5845 5850 5853 5856 5858 5860 5861 5861 5863 5863 5862 5862 5861
5685 5691 5701 5709 5720 5724 5729 5734 5741 5745 5751 5757 5761 5763 5766 5769 5774 5780 5784 5789 5794 5797 5801 5807 5813 5814 5819 5826 5831 5837 5842 5845 5848 5852 5854 5856 5857 5858 5859 5859 5858 5857 5857
5676 5681 5692 5706 5708 5716 5719 5724 5732 5737 5742 5748 5753 5757 5760 5764 5768 5773 5777 5781 5787 5788 5794 5797 5802 5810 5815 5822 5826 5831 5835 5840 5844 5846 5849 5851 5853 5854 5854 5855 5856 5856 5853
5668 5673 5680 5693 5699 5708 5712 5716 5721 5729 5732 5738 5745 5752 5756 5759 5763 5766 5769 5776 5780 5781 5784 5788 5794 5800 5807 5815 5820 5826 5830 5834 5836 5840 5843 5845 5847 5850 5850 5849 5850 5850 5850
Wind_Speed
23 19 20 18 20 18 15 14 13 14 14 15 18 17 15 16 19 17 17 18 17 18 17 17 16 18 18 18 20 21 20 17 15 12 10 9 8 9 9 8 8 7 8
16 17 19 18 20 20 16 14 14 14 14 15 18 18 16 14 19 18 17 15 17 17 17 16 18 18 18 19 21 20 18 17 13 12 8 8 8 8 8 7 7 8 8
13 17 16 17 17 19 16 14 15 14 15 16 18 18 17 17 20 21 19 18 17 18 18 19 19 17 18 18 18 20 17 14 14 12 8 7 7 7 7 6 7 7 7
18 17 16 16 16 17 15 15 16 14 16 16 18 19 18 21 18 23 22 20 19 19 18 19 19 18 17 16 21 21 16 13 13 12 9 7 6 5 6 7 6 6 6
18 16 17 15 15 15 15 15 17 15 16 17 17 20 18 19 19 25 23 21 19 17 20 19 20 17 17 15 15 16 15 13 14 11 9 7 6 5 6 4 6 6 7
21 16 17 14 14 14 16 15 16 15 17 17 17 22 20 20 20 21 24 22 20 21 22 21 19 16 15 15 17 15 13 12 13 11 9 7 6 6 3 5 6 7 7
20 21 18 16 14 13 16 16 15 17 17 18 18 16 19 21 21 21 23 24 24 27 20 22 16 19 16 16 17 16 14 14 13 11 8 7 6 4 6 6 7 7 6
21 21 18 19 20 15 15 17 16 17 19 19 18 24 23 23 21 19 22 25 24 22 20 18 15 19 16 16 19 17 16 14 14 12 9 8 5 6 7 7 6 5 4
20 19 21 20 20 17 17 18 18 17 20 17 16 25 26 24 24 22 22 28 25 27 20 12 12 18 19 19 16 16 14 16 16 12 9 7 8 7 7 7 4 3 3
22 23 21 19 22 23 21 20 19 19 19 17 12 29 27 22 22 21 27 24 31 25 23 16 16 21 23 18 13 17 18 18 15 11 10 8 8 8 7 4 2 2 2
25 28 24 23 22 23 22 20 20 20 18 17 14 27 26 20 22 26 30 28 32 31 27 19 21 24 23 17 19 19 19 18 13 12 10 9 9 7 5 1 0 1 3
28 29 26 24 22 23 24 19 19 20 18 17 16 29 27 26 24 27 28 28 27 26 20 25 24 26 23 19 20 20 20 16 14 13 12 11 8 6 3 1 2 2 3
31 29 28 27 23 21 21 19 18 20 19 19 23 24 23 26 24 26 25 26 21 20 21 28 27 28 22 21 21 21 18 18 15 15 13 10 8 6 5 4 3 2 2
34 33 30 30 25 22 21 19 18 20 20 19 21 24 29 27 25 25 25 23 23 22 24 30 30 28 23 24 22 20 19 17 17 16 13 10 8 7 5 4 3 2 2
36 36 35 33 28 24 21 20 17 20 20 20 22 25 27 31 29 26 26 26 25 24 27 30 30 27 28 25 22 22 20 19 18 16 13 11 9 7 6 4 4 2 2
37 37 38 37 32 27 21 22 18 19 20 19 21 25 26 32 30 28 29 28 27 26 27 28 28 29 28 25 24 23 21 19 19 16 13 12 10 8 7 5 3 3 6
36 40 35 39 35 30 23 22 21 19 20 22 27 25 28 30 34 33 31 28 28 29 29 28 29 30 27 25 26 23 23 21 19 16 15 12 11 8 6 4 3 5 6
39 41 40 37 39 35 27 26 22 21 21 24 26 27 27 27 38 37 35 32 30 31 30 31 30 29 27 27 26 26 23 22 19 16 15 13 11 8 6 3 2 4 7
48 39 45 37 42 40 34 29 28 25 25 25 26 32 27 30 28 37 36 37 35 33 33 32 31 30 27 28 27 26 23 22 20 18 16 14 12 9 6 3 2 4 7
47 42 45 40 41 45 40 35 31 26 29 27 27 31 37 26 30 43 36 40 36 37 35 35 34 30 27 26 27 26 25 24 22 19 17 15 13 10 6 3 1 2 5
29 44 44 43 39 47 45 36 30 30 27 29 29 32 42 24 37 27 33 36 38 37 38 37 36 35 31 31 29 26 27 25 24 21 19 17 14 11 8 5 3 4 7
49 49 48 46 38 45 47 41 37 32 32 33 31 30 32 29 40 30 36 43 42 43 41 36 36 41 35 33 30 28 27 28 26 23 21 19 16 13 10 9 9 10 11
49 53 51 50 42 44 46 47 41 39 38 38 28 25 30 30 21 33 37 46 43 46 47 43 45 32 35 34 31 30 30 29 27 24 23 21 18 16 14 13 14 15 16
55 56 54 55 47 45 49 50 45 42 40 35 31 27 27 29 32 23 33 36 48 47 54 46 43 43 41 33 33 30 29 32 31 27 25 23 21 19 18 16 17 20 22
59 59 57 53 53 47 52 53 50 44 39 39 39 32 29 31 33 32 29 30 32 53 51 48 52 47 38 34 36 34 32 33 32 32 27 25 23 21 21 21 21 22 25
60 62 59 52 57 48 53 56 54 51 44 37 36 37 31 30 31 31 29 31 32 43 41 55 47 43 39 39 37 35 34 35 36 34 30 28 26 24 24 24 26 28 27
Wind_Direction
307 292 291 282 275 277 281 272 264 265 262 260 254 241 238 220 200 187 178 177 167 162 159 154 161 170 170 173 169 163 162 160 166 170 158 147 133 124 112 100 91 65 45
292 296 305 284 281 278 278 265 262 262 265 263 252 242 234 228 212 196 181 181 176 172 168 167 168 171 172 172 164 164 165 165 174 163 154 148 131 118 105 101 88 50 67
283 289 294 290 282 275 270 259 261 261 266 267 249 245 231 224 214 202 189 186 181 178 176 176 167 168 168 169 163 171 175 169 167 163 153 146 129 121 115 104 69 53 60
280 283 291 293 282 278 261 256 261 259 267 264 250 245 230 225 221 203 198 188 185 181 181 181 180 170 161 163 173 176 175 169 168 161 156 142 140 132 115 86 51 72 65
273 278 286 294 289 276 259 254 257 262 267 259 249 242 228 218 204 197 194 195 188 182 182 176 176 163 163 165 168 172 175 180 168 162 157 153 150 136 106 75 93 77 60
276 278 283 287 294 281 268 264 262 263 266 259 249 244 221 206 195 196 199 199 199 187 194 194 188 179 174 179 172 171 173 172 173 163 155 160 157 129 114 111 95 79 64
269 276 273 267 285 292 278 274 270 264 265 257 253 231 206 201 192 199 202 195 198 189 194 195 191 196 186 181 182 182 186 177 179 169 164 169 152 148 119 97 78 66 63
264 269 257 261 265 278 289 278 271 268 264 256 249 244 199 192 186 201 199 194 192 174 184 185 189 195 186 181 180 189 185 184 177 171 175 166 163 140 110 93 82 78 38
261 263 255 256 254 260 281 296 275 270 266 255 262 184 189 185 178 183 195 181 163 173 172 200 190 186 182 171 170 187 179 187 177 173 174 171 161 127 109 94 92 56 6
257 258 261 265 265 265 270 288 283 273 265 257 245 186 181 181 191 192 191 187 178 171 196 194 187 185 181 181 164 170 185 181 176 174 175 170 143 124 111 108 66 358 354
248 253 258 261 269 267 269 278 280 272 264 255 230 195 185 191 191 195 182 181 182 186 191 203 181 183 184 179 172 174 181 178 174 175 178 162 141 127 117 106 352 21 58
244 250 257 258 264 267 271 268 274 268 258 251 234 185 181 192 190 189 180 181 182 191 199 194 186 190 188 184 178 180 182 175 175 179 170 156 143 136 140 129 93 74 62
246 247 249 255 258 268 263 261 271 267 250 250 227 212 196 184 183 188 187 189 191 199 201 190 191 193 190 183 179 183 178 176 181 173 165 156 151 149 137 127 120 113 57
236 246 246 252 252 261 256 254 266 265 250 243 233 211 197 195 190 189 195 197 204 199 192 193 191 190 193 185 183 190 181 184 179 171 164 158 156 146 145 150 137 116 68
234 238 245 246 248 253 248 243 261 262 254 239 242 208 201 201 193 194 197 197 196 194 190 186 190 189 189 186 187 194 190 183 177 171 166 161 161 156 146 146 133 119 352
235 233 242 242 242 246 247 238 251 258 253 232 229 211 213 202 194 196 196 196 193 193 189 189 189 190 191 188 191 198 189 183 179 174 167 164 161 150 137 133 105 53 25
232 231 231 241 243 241 243 233 244 250 255 237 224 221 215 217 196 197 199 201 196 195 193 196 197 195 195 194 196 200 189 185 181 175 172 166 157 152 144 120 78 37 18
240 229 229 234 238 239 234 232 242 246 248 246 240 237 224 221 217 198 202 203 204 199 197 202 203 202 198 200 201 200 192 187 183 180 176 171 168 160 153 117 63 23 14
249 229 230 230 236 237 233 233 237 246 244 247 234 240 224 214 226 206 204 204 206 204 202 204 205 209 207 204 200 200 196 189 187 184 181 179 174 165 158 135 63 31 12
249 234 230 226 233 237 232 230 233 240 245 249 250 240 225 231 224 220 214 209 206 207 205 209 207 208 202 212 203 201 200 194 191 189 186 185 179 178 182 174 73 29 357
239 239 228 228 228 237 238 230 234 240 241 241 244 250 246 233 223 216 219 216 211 210 209 212 212 207 209 210 209 208 205 200 196 192 190 196 190 198 211 221 279 301 312
230 225 218 228 222 232 237 234 232 234 234 233 240 247 252 233 227 209 219 218 213 211 209 208 219 211 209 212 210 213 211 205 202 198 196 199 211 209 225 245 269 289 300
225 232 215 223 221 228 230 233 229 234 234 229 241 257 260 237 241 231 215 218 215 214 212 211 222 214 212 212 214 217 214 210 207 205 207 206 210 224 237 256 271 282 297
228 231 230 214 220 223 229 232 229 235 238 232 237 245 246 243 244 220 222 224 222 217 203 202 209 220 216 213 218 223 218 215 214 213 215 215 218 225 242 254 271 286 292
229 231 229 223 217 219 228 229 229 223 244 234 228 236 242 246 246 252 254 253 227 212 208 210 211 214 214 215 219 221 221 219 219 220 222 225 228 234 246 256 264 273 285
229 233 233 225 222 215 226 232 229 229 230 239 231 229 238 247 245 247 246 250 252 210 206 207 205 208 211 216 222 226 223 221 222 223 225 232 238 242 249 260 269 276 282